[[{"header":{"parameterUnit":"m.s-1","parameterCategory":2,"la1":30.2992,"la2":30.254,"lo1":-89.0895,"lo2":-89.0443,"dy":0.0025,"dx":0.0025,"nx":19,"ny":19,"refTime":"2026-04-23T09:00:00:Z","depth":"0","parameterNumber":2,"parameterNumberName":"U-component_of_CURRENTS"},"data":[0,0,0,-0.3007,-0.3011,-0.32,-0.32,-0.3281,-0.3282,0,0,0,0,0,0,0,0,0,0,0,-0.2918,-0.2919,-0.3006,-0.3012,-0.32,-0.32,-0.3281,-0.3282,0,0,0,0,0,0,0,0,0,0,0,-0.2917,-0.2919,-0.2921,-0.3013,-0.32,-0.32,-0.3281,-0.3173,0,0,0,0,0,0,0,0,0,0,-0.3008,-0.2948,-0.2919,-0.2921,-0.3014,-0.3199,-0.32,-0.3169,-0.318,-0.3158,0,-0.3197,0,-0.326,-0.3286,-0.3286,0,0,0,-0.2987,-0.294,-0.3009,-0.2921,-0.3016,-0.3199,-0.3108,-0.3176,-0.3188,-0.3171,-0.3199,-0.3204,-0.3262,-0.3286,-0.3287,-0.3239,-0.3238,0,0,-0.2977,-0.293,-0.3002,-0.3017,-0.3074,-0.3102,-0.3114,-0.3185,-0.3185,-0.3199,-0.3207,-0.3263,-0.3287,-0.3287,-0.324,-0.3239,0,0,0,-0.2964,-0.2923,-0.2993,-0.3011,-0.307,-0.3108,-0.3122,-0.3182,-0.3211,-0.3209,-0.3264,-0.3287,-0.3288,-0.3241,-0.324,-0.3184,0,0,0,-0.2956,-0.2918,-0.2988,-0.2959,-0.307,-0.315,-0.3117,-0.3205,-0.3217,-0.3264,-0.3287,-0.3288,-0.3242,-0.324,-0.3188,-0.3169,0,0,0,-0.2908,-0.2913,-0.2942,-0.2956,-0.3055,-0.3151,-0.3184,-0.321,-0.3251,-0.3286,-0.3289,-0.3243,-0.3241,-0.3191,-0.3175,-0.3156,0,0,0,-0.2842,-0.2922,-0.294,-0.3065,-0.3053,-0.3192,-0.3184,-0.3281,-0.3319,-0.3287,-0.3242,-0.324,-0.3192,-0.3178,-0.3159,-0.304,-0.3017,0,0,-0.2917,-0.2929,-0.3016,-0.3039,-0.3163,-0.3163,-0.3207,-0.3253,-0.3256,-0.3206,-0.3207,-0.3187,-0.3175,-0.3157,-0.2906,-0.2887,0,0,0,-0.3026,-0.3047,-0.3108,-0.3179,-0.3276,-0.3231,-0.3283,-0.3235,-0.3178,-0.3273,-0.3155,-0.3149,-0.314,-0.3072,-0.3056,-0.2982,-0.3229,-0.3229,-0.323,-0.2934,-0.3041,-0.3114,-0.3204,-0.325,-0.3263,-0.3219,-0.313,-0.3173,-0.3099,-0.3079,-0.2994,-0.2918,-0.2906,-0.2829,-0.3049,-0.3048,-0.3048,-0.3048,-0.2949,-0.2981,-0.3031,-0.3136,-0.3113,-0.3113,-0.3053,-0.3043,-0.2954,-0.2969,-0.2964,-0.2986,-0.2885,-0.281,-0.3044,-0.3045,-0.3045,-0.3046,-0.3046,-0.286,-0.2877,-0.2951,-0.2984,-0.2941,-0.2961,-0.2878,-0.2881,-0.289,-0.2877,-0.2837,-0.2837,-0.2796,-0.2891,-0.2891,-0.2891,-0.2891,-0.2891,-0.289,-0.2715,-0.2786,-0.275,-0.2807,-0.2763,-0.2744,-0.2772,-0.2777,-0.277,-0.2761,-0.276,-0.2727,-0.2947,-0.2982,-0.2887,-0.2888,-0.2888,-0.2889,-0.2889,-0.2602,-0.2614,-0.2537,-0.2497,-0.2442,-0.2384,-0.2509,-0.2553,-0.2593,-0.2571,-0.251,-0.2696,-0.271,-0.2721,-0.2749,-0.2601,-0.2601,-0.2601,-0.2601,-0.2443,-0.2477,-0.2268,-0.2149,-0.2096,-0.2173,-0.212,-0.2207,-0.2286,-0.2262,-0.2351,-0.2336,-0.2351,-0.2346,-0.2366,-0.2388,-0.2151,-0.215,-0.215,-0.2279,-0.2244,-0.2024,-0.1973,-0.1911,-0.1968,-0.1876,-0.1851,-0.199,-0.2131,-0.2269,-0.2288,-0.2271,-0.2301,-0.2304,-0.2337,-0.2379,0,0]},{"header":{"parameterUnit":"m.s-1","parameterCategory":2,"la1":30.2992,"la2":30.254,"lo1":-89.0895,"lo2":-89.0443,"dy":0.0025,"dx":0.0025,"nx":19,"ny":19,"refTime":"2026-04-23T09:00:00:Z","depth":"0","parameterNumber":3,"parameterNumberName":"V-component_of_CURRENTS"},"data":[0,0,0,-0.0134,-0.013,0.0057,0.0058,0.0274,0.0276,0,0,0,0,0,0,0,0,0,0,0,-0.021,-0.0209,-0.0134,-0.013,0.0057,0.0058,0.0274,0.0276,0,0,0,0,0,0,0,0,0,0,0,-0.021,-0.0209,-0.0209,-0.0129,0.0056,0.0058,0.0274,0.0143,0,0,0,0,0,0,0,0,0,0,-0.0034,-0.0111,-0.0209,-0.0209,-0.0128,0.0056,0.0058,0.0137,0.0151,0.0178,0,0.0189,0,0.0235,0.0288,0.0289,0,0,0,-0.0112,-0.0123,-0.0071,-0.0208,-0.0127,0.0056,-0.0022,0.0145,0.0161,0.0196,0.0193,0.0202,0.0239,0.029,0.0291,0.0323,0.0322,0,0,-0.0122,-0.017,-0.0082,-0.0062,-0.0101,-0.0029,-0.0017,0.0155,0.016,0.0194,0.0207,0.0242,0.0291,0.0292,0.0324,0.0323,0,0,0,-0.0164,-0.0178,-0.0128,-0.0071,-0.0037,-0.0024,-0.001,0.0153,0.0169,0.021,0.0245,0.0292,0.0294,0.0325,0.0323,0.0203,0,0,0,-0.0169,-0.0203,-0.0134,-0.0159,-0.0041,0.0063,-0.0017,0.0157,0.0178,0.0244,0.0292,0.0296,0.0326,0.0324,0.0209,0.0188,0,0,0,-0.0214,-0.0207,-0.0192,-0.0163,-0.0088,0.0061,0.0089,0.0163,0.0199,0.0289,0.0296,0.0327,0.0324,0.0214,0.0196,0.022,0,0,0,-0.0259,-0.0293,-0.0194,-0.0218,-0.009,-0.0041,0.0088,0.015,0.0213,0.0293,0.0326,0.0324,0.0215,0.02,0.0224,0.0333,0.0326,0,0,-0.0339,-0.0304,-0.032,-0.0227,-0.0229,-0.0064,-0.005,0.0096,0.0185,0.0275,0.0276,0.0207,0.0196,0.0221,0.0191,0.0189,0,0,0,-0.037,-0.0388,-0.0369,-0.0338,-0.0254,-0.0165,-0.0025,0.0044,0.0132,0.0211,0.0191,0.0188,0.0208,0.028,0.0277,0.0538,0.0312,0.0312,0.0313,-0.0534,-0.0486,-0.0519,-0.0451,-0.0395,-0.0239,-0.0164,-0.0047,0.0039,0.0045,0.0076,-0.0004,0.0065,0.0066,0.033,0.0045,0.0044,0.0044,0.0043,-0.0682,-0.0708,-0.0625,-0.0643,-0.0519,-0.0474,-0.0283,-0.0201,-0.0091,-0.0038,-0.0013,0.0131,0.0057,0.034,0.0035,0.0037,0.0038,0.0039,0.0039,-0.0808,-0.0815,-0.0809,-0.0801,-0.0736,-0.0584,-0.048,-0.0337,-0.0195,-0.0172,-0.0014,-0.001,0.0262,-0.0146,-0.0146,-0.0146,-0.0146,-0.0146,-0.0146,-0.0936,-0.093,-0.0972,-0.0945,-0.0908,-0.0804,-0.0577,-0.0458,-0.0235,-0.0108,-0.0105,0.0267,-0.0059,-0.0026,-0.0147,-0.0147,-0.0147,-0.0147,-0.0147,-0.1085,-0.1074,-0.1134,-0.1127,-0.1036,-0.0921,-0.0722,-0.0401,-0.0257,-0.0124,0.032,-0.0043,0.0034,0.0038,0.0075,-0.0013,-0.0013,-0.0013,-0.0013,-0.1177,-0.1182,-0.1229,-0.1213,-0.1147,-0.0962,-0.0683,-0.0322,0.018,0.0461,0.0519,0.0595,0.0578,0.0692,0.0681,0.0734,0.0815,0.0816,0.0818,-0.1256,-0.1259,-0.1293,-0.1272,-0.1179,-0.0982,-0.0649,-0.0117,0.0598,0.0875,0.0859,0.0824,0.0955,0.0907,0.1102,0.1066,0.1156,0,0]}],[{"header":{"parameterUnit":"m.s-1","parameterCategory":2,"la1":30.2992,"la2":30.254,"lo1":-89.0895,"lo2":-89.0443,"dy":0.0025,"dx":0.0025,"nx":19,"ny":19,"refTime":"2026-04-23T09:00:00:Z","depth":"2","parameterNumber":2,"parameterNumberName":"U-component_of_CURRENTS"},"data":[0,0,0,-0.2479,-0.2482,-0.262,-0.262,-0.2705,-0.2706,0,0,0,0,0,0,0,0,0,0,0,-0.2391,-0.2391,-0.2479,-0.2483,-0.262,-0.262,-0.2705,-0.2706,0,0,0,0,0,0,0,0,0,0,0,-0.2391,-0.2391,-0.2391,-0.2483,-0.262,-0.262,-0.2705,-0.2624,0,0,0,0,0,0,0,0,0,0,-0.2502,-0.245,-0.2391,-0.2391,-0.2484,-0.262,-0.2621,-0.2621,-0.2629,-0.2617,0,-0.2609,0,-0.2675,-0.2709,-0.2709,0,0,0,-0.2484,-0.2443,-0.247,-0.2391,-0.2485,-0.2619,-0.2558,-0.2626,-0.2635,-0.2627,-0.2611,-0.2617,-0.2676,-0.271,-0.271,-0.272,-0.272,0,0,-0.2476,-0.2434,-0.2463,-0.2474,-0.2482,-0.2554,-0.2562,-0.2633,-0.2629,-0.2612,-0.262,-0.2678,-0.271,-0.271,-0.2721,-0.272,0,0,0,-0.2454,-0.2429,-0.2456,-0.2468,-0.251,-0.2558,-0.2568,-0.2626,-0.263,-0.2621,-0.2679,-0.271,-0.2711,-0.2721,-0.272,-0.2731,0,0,0,-0.2449,-0.2416,-0.2451,-0.2431,-0.2508,-0.2589,-0.2559,-0.2624,-0.2637,-0.2678,-0.271,-0.2711,-0.2721,-0.2721,-0.2731,-0.2723,0,0,0,-0.2392,-0.2413,-0.2413,-0.2428,-0.2491,-0.2589,-0.26,-0.2629,-0.2671,-0.2709,-0.2711,-0.2721,-0.2721,-0.2732,-0.2724,-0.272,0,0,0,-0.2367,-0.2401,-0.2411,-0.2492,-0.2489,-0.2588,-0.2601,-0.2665,-0.2696,-0.271,-0.2721,-0.2721,-0.2732,-0.2725,-0.272,-0.2572,-0.2558,0,0,-0.2413,-0.2405,-0.2467,-0.2481,-0.2556,-0.2571,-0.2657,-0.2687,-0.2678,-0.2693,-0.2694,-0.2731,-0.2724,-0.272,-0.2534,-0.2521,0,0,0,-0.2489,-0.2486,-0.2514,-0.2572,-0.264,-0.2652,-0.2709,-0.2691,-0.2689,-0.2695,-0.2715,-0.2709,-0.2707,-0.2617,-0.2607,-0.2717,-0.2717,-0.2718,-0.2718,-0.2418,-0.2508,-0.2558,-0.2627,-0.2672,-0.2717,-0.2716,-0.2696,-0.2709,-0.2681,-0.2706,-0.2692,-0.2595,-0.2586,-0.2699,-0.2699,-0.2699,-0.2699,-0.2699,-0.2429,-0.2453,-0.2541,-0.2621,-0.2657,-0.2714,-0.2713,-0.2707,-0.2692,-0.2685,-0.2683,-0.2617,-0.2575,-0.27,-0.27,-0.2699,-0.2699,-0.2699,-0.2699,-0.2348,-0.2362,-0.2453,-0.254,-0.259,-0.2657,-0.2638,-0.2664,-0.2677,-0.268,-0.2585,-0.2582,-0.2702,-0.2689,-0.2689,-0.2689,-0.2689,-0.2689,-0.2689,-0.2207,-0.2291,-0.2309,-0.2413,-0.2448,-0.2496,-0.2574,-0.2586,-0.258,-0.2566,-0.2565,-0.2688,-0.2688,-0.27,-0.2688,-0.2688,-0.2688,-0.2688,-0.2688,-0.2116,-0.2103,-0.2103,-0.2142,-0.2229,-0.2203,-0.2354,-0.2379,-0.2424,-0.2391,-0.2493,-0.2498,-0.2477,-0.2483,-0.2489,-0.2423,-0.2423,-0.2423,-0.2423,-0.1972,-0.1995,-0.1897,-0.1906,-0.1949,-0.2045,-0.1964,-0.1994,-0.2117,-0.2126,-0.2139,-0.2099,-0.2116,-0.2074,-0.2089,-0.2087,-0.1916,-0.1916,-0.1915,-0.1888,-0.1843,-0.174,-0.1753,-0.1816,-0.1853,-0.1702,-0.1555,-0.165,-0.1896,-0.2064,-0.2386,-0.2361,-0.2374,-0.234,-0.2353,-0.2361,0,0]},{"header":{"parameterUnit":"m.s-1","parameterCategory":2,"la1":30.2992,"la2":30.254,"lo1":-89.0895,"lo2":-89.0443,"dy":0.0025,"dx":0.0025,"nx":19,"ny":19,"refTime":"2026-04-23T09:00:00:Z","depth":"2","parameterNumber":3,"parameterNumberName":"V-component_of_CURRENTS"},"data":[0,0,0,-0.0293,-0.0291,-0.0134,-0.0133,0.0081,0.0083,0,0,0,0,0,0,0,0,0,0,0,-0.0359,-0.0359,-0.0294,-0.0291,-0.0134,-0.0133,0.0081,0.0083,0,0,0,0,0,0,0,0,0,0,0,-0.036,-0.0359,-0.0359,-0.029,-0.0134,-0.0133,0.008,-0.0037,0,0,0,0,0,0,0,0,0,0,-0.0189,-0.0259,-0.0359,-0.0359,-0.0289,-0.0134,-0.0132,-0.0042,-0.0029,0.0007,0,0.0011,0,0.0049,0.0095,0.0096,0,0,0,-0.027,-0.027,-0.0229,-0.0359,-0.0288,-0.0134,-0.0199,-0.0035,-0.002,0.0024,0.0014,0.0022,0.0052,0.0097,0.0097,0.0189,0.0189,0,0,-0.0279,-0.0321,-0.024,-0.0221,-0.0273,-0.0204,-0.0194,-0.0026,-0.0021,0.0015,0.0028,0.0056,0.0098,0.0099,0.0189,0.0189,0,0,0,-0.0318,-0.0327,-0.0289,-0.023,-0.0204,-0.02,-0.0188,-0.0028,-0.0017,0.003,0.0058,0.0099,0.0101,0.019,0.0189,0.0093,0,0,0,-0.0322,-0.035,-0.0294,-0.0315,-0.0208,-0.0116,-0.0195,-0.0029,-0.0008,0.0057,0.0099,0.0103,0.019,0.019,0.0096,0.0067,0,0,0,-0.0362,-0.0354,-0.0345,-0.0319,-0.0258,-0.0118,-0.0095,-0.0024,0.0008,0.0096,0.0104,0.0191,0.019,0.0099,0.0073,0.0095,0,0,0,-0.0396,-0.0419,-0.0346,-0.0357,-0.026,-0.0203,-0.0096,-0.0033,0.003,0.01,0.019,0.0189,0.01,0.0076,0.0097,0.0168,0.0163,0,0,-0.045,-0.0427,-0.0432,-0.0364,-0.0349,-0.0221,-0.0181,-0.0051,0.003,0.0141,0.0144,0.0095,0.0073,0.0095,0.011,0.0107,0,0,0,-0.0465,-0.0476,-0.0457,-0.0426,-0.0353,-0.0267,-0.0143,-0.0076,0.0024,0.0062,0.0102,0.0092,0.0109,0.0156,0.0153,0.0185,0.0185,0.0185,0.0185,-0.0592,-0.0545,-0.056,-0.0493,-0.0438,-0.0297,-0.0223,-0.0108,-0.0031,-0.001,0.0017,-0.0027,0.002,0.0019,0.0016,0.0015,0.0015,0.0015,0.0014,-0.0698,-0.0717,-0.0636,-0.0639,-0.0527,-0.0471,-0.0283,-0.021,-0.0096,-0.005,-0.0029,0.0056,0.0011,0.0007,0.0008,0.0009,0.001,0.0011,0.0011,-0.0806,-0.0811,-0.0796,-0.0772,-0.0707,-0.0562,-0.0461,-0.0322,-0.0186,-0.0163,-0.0047,-0.0044,-0.0056,-0.0141,-0.0141,-0.0141,-0.0141,-0.0141,-0.0141,-0.0931,-0.0911,-0.0939,-0.0896,-0.0869,-0.077,-0.0558,-0.0448,-0.0246,-0.0128,-0.0126,-0.0077,-0.0072,-0.0063,-0.0142,-0.0142,-0.0142,-0.0142,-0.0142,-0.1093,-0.1041,-0.1087,-0.1082,-0.1003,-0.0904,-0.0713,-0.0426,-0.0293,-0.0178,-0.008,-0.0081,-0.0024,-0.002,-0.0008,-0.0068,-0.0068,-0.0068,-0.0068,-0.118,-0.1167,-0.1184,-0.1179,-0.1124,-0.0957,-0.0729,-0.0415,-0.0151,-0.0025,-0.0027,-0.0003,-0.0006,0.0054,0.0056,0.0071,0.0031,0.0031,0.0031,-0.1278,-0.1251,-0.1285,-0.124,-0.1172,-0.0993,-0.0731,-0.0309,0.0032,0.0031,-0.005,-0.0054,-0.0022,-0.0025,0.0067,0.007,0.0096,0,0]}],[{"header":{"parameterUnit":"m.s-1","parameterCategory":2,"la1":30.2992,"la2":30.254,"lo1":-89.0895,"lo2":-89.0443,"dy":0.0025,"dx":0.0025,"nx":19,"ny":19,"refTime":"2026-04-23T09:00:00:Z","depth":"4","parameterNumber":2,"parameterNumberName":"U-component_of_CURRENTS"},"data":[0,0,0,-0.1289,-0.129,-0.1362,-0.1362,-0.1446,-0.1446,0,0,0,0,0,0,0,0,0,0,0,-0.1281,-0.1281,-0.1289,-0.129,-0.1362,-0.1362,-0.1445,-0.1446,0,0,0,0,0,0,0,0,0,0,0,-0.128,-0.1281,-0.1282,-0.1291,-0.1362,-0.1362,-0.1445,-0.1396,0,0,0,0,0,0,0,0,0,0,-0.1329,-0.1306,-0.1281,-0.1282,-0.1291,-0.1362,-0.1362,-0.1394,-0.1399,-0.1407,0,-0.1424,0,-0.1424,-0.145,-0.1451,0,0,0,-0.1303,-0.1302,-0.1328,-0.1282,-0.1291,-0.1362,-0.1333,-0.1397,-0.1403,-0.1413,-0.1425,-0.1428,-0.1426,-0.1451,-0.1451,-0.1662,-0.1664,0,0,-0.1299,-0.1286,-0.1324,-0.1332,-0.1318,-0.1331,-0.1335,-0.1401,-0.1406,-0.1426,-0.143,-0.1427,-0.1451,-0.1452,-0.166,-0.1662,0,0,0,-0.1279,-0.1283,-0.1308,-0.1329,-0.1336,-0.1333,-0.1338,-0.1403,-0.1414,-0.1431,-0.1428,-0.1452,-0.1452,-0.1658,-0.1661,-0.1751,0,0,0,-0.1277,-0.127,-0.1307,-0.1298,-0.1335,-0.1367,-0.1338,-0.141,-0.1417,-0.1428,-0.1452,-0.1453,-0.1656,-0.166,-0.1744,-0.1763,0,0,0,-0.1276,-0.1269,-0.1282,-0.1297,-0.1322,-0.1366,-0.1381,-0.1412,-0.1415,-0.1451,-0.1453,-0.1655,-0.1659,-0.1738,-0.1754,-0.1779,0,0,0,-0.1253,-0.1261,-0.1282,-0.1286,-0.1321,-0.1382,-0.1381,-0.1435,-0.1471,-0.1452,-0.1656,-0.1661,-0.1736,-0.1748,-0.1775,-0.1452,0,0,0,-0.1245,-0.1259,-0.1259,-0.128,-0.1368,-0.1373,-0.1489,-0.1537,-0.1547,-0.1631,-0.1636,-0.1746,-0.1753,-0.1778,-0.1715,0,0,0,0,-0.1244,-0.1281,-0.1297,-0.1357,-0.1392,-0.1517,-0.1554,-0.1613,-0.1742,-0.1586,-0.1811,-0.1813,-0.1824,-0.1627,-0.1682,-0.1682,-0.1681,-0.168,-0.168,-0.1258,-0.13,-0.1362,-0.1453,-0.1515,-0.1639,-0.173,-0.1839,-0.1814,-0.1924,-0.1935,-0.2081,-0.1885,-0.2,-0.2001,-0.2002,-0.2002,-0.2002,-0.2003,-0.1299,-0.1317,-0.1456,-0.1543,-0.1683,-0.1799,-0.196,-0.2002,-0.2128,-0.2107,-0.2113,-0.1799,-0.2013,-0.2011,-0.2009,-0.2008,-0.2007,-0.2007,-0.2006,-0.1274,-0.1292,-0.139,-0.1568,-0.1764,-0.1913,-0.2041,-0.2154,-0.2211,-0.2246,-0.1999,-0.2137,-0.2069,-0.2241,-0.2241,-0.2242,-0.2242,-0.2242,-0.2242,-0.1165,-0.1271,-0.1386,-0.1593,-0.1719,-0.1892,-0.2087,-0.2117,-0.2199,-0.2068,-0.226,-0.216,-0.2153,-0.2085,-0.2246,-0.2246,-0.2245,-0.2245,-0.2244,-0.1041,-0.1128,-0.1289,-0.1425,-0.1702,-0.1793,-0.2001,-0.1971,-0.1984,-0.1914,-0.196,-0.1973,-0.1894,-0.1893,-0.1811,-0.1897,-0.1894,-0.189,0,-0.0933,-0.0997,-0.1205,-0.1386,-0.154,-0.1728,-0.1662,-0.1716,-0.1767,-0.1712,-0.2003,-0.2059,-0.2064,-0.1978,-0.1971,-0.1877,0,0,0,-0.084,-0.0948,-0.1041,-0.1285,-0.146,-0.1509,-0.1631,-0.1564,-0.1775,-0.1658,-0.18,-0.1823,-0.2063,-0.2259,-0.2167,-0.2158,-0.2043,0,0]},{"header":{"parameterUnit":"m.s-1","parameterCategory":2,"la1":30.2992,"la2":30.254,"lo1":-89.0895,"lo2":-89.0443,"dy":0.0025,"dx":0.0025,"nx":19,"ny":19,"refTime":"2026-04-23T09:00:00:Z","depth":"4","parameterNumber":3,"parameterNumberName":"V-component_of_CURRENTS"},"data":[0,0,0,-0.0302,-0.0301,-0.0242,-0.0241,-0.0109,-0.0108,0,0,0,0,0,0,0,0,0,0,0,-0.0321,-0.0321,-0.0302,-0.0301,-0.0242,-0.0241,-0.0109,-0.0108,0,0,0,0,0,0,0,0,0,0,0,-0.0321,-0.0321,-0.0321,-0.0301,-0.0242,-0.0241,-0.0109,-0.0164,0,0,0,0,0,0,0,0,0,0,-0.0227,-0.0266,-0.0321,-0.0321,-0.0301,-0.0242,-0.0241,-0.0167,-0.016,-0.0125,0,-0.0129,0,-0.0122,-0.0099,-0.0099,0,0,0,-0.0283,-0.0271,-0.0253,-0.0321,-0.03,-0.0242,-0.0263,-0.0163,-0.0156,-0.0116,-0.0127,-0.0123,-0.012,-0.0098,-0.0098,0.0043,0.0044,0,0,-0.0286,-0.0307,-0.0258,-0.0249,-0.03,-0.0265,-0.0262,-0.0159,-0.0158,-0.0127,-0.012,-0.0118,-0.0098,-0.0097,0.0043,0.0044,0,0,0,-0.0308,-0.0309,-0.0294,-0.0254,-0.0251,-0.0264,-0.026,-0.0163,-0.0158,-0.0118,-0.0116,-0.0097,-0.0095,0.0042,0.0043,-0.0013,0,0,0,-0.0309,-0.0323,-0.0296,-0.0306,-0.0254,-0.0216,-0.0266,-0.0165,-0.0153,-0.0117,-0.0097,-0.0094,0.0041,0.0043,-0.0013,-0.0055,0,0,0,-0.0321,-0.0324,-0.0322,-0.0308,-0.029,-0.0218,-0.0206,-0.0162,-0.0152,-0.0099,-0.0094,0.0041,0.0042,-0.0013,-0.0054,-0.004,0,0,0,-0.0337,-0.0347,-0.0323,-0.0324,-0.0291,-0.0248,-0.0207,-0.0168,-0.0127,-0.0096,0.0042,0.0043,-0.0013,-0.0053,-0.0039,-0.0086,0,0,0,-0.0357,-0.035,-0.0347,-0.0325,-0.0309,-0.0254,-0.0205,-0.014,-0.0087,0.0014,0.0017,-0.0013,-0.0054,-0.0039,-0.0,0,0,0,0,-0.0358,-0.0365,-0.0352,-0.0338,-0.0293,-0.0242,-0.0172,-0.0123,-0.0037,-0.0059,0.0032,0.0009,0.0019,-0.0004,0.005,0.005,0.005,0.0049,0.0049,-0.0423,-0.0392,-0.0394,-0.035,-0.0311,-0.0224,-0.0171,-0.0083,-0.0035,0.0005,-0.0003,0.0013,-0.001,0.0047,0.0046,0.0046,0.0046,0.0046,0.0046,-0.0476,-0.048,-0.043,-0.0428,-0.0353,-0.0304,-0.0163,-0.0117,-0.0024,0.0008,0.0021,-0.002,0.0041,0.0042,0.0043,0.0043,0.0044,0.0044,0.0044,-0.0537,-0.0534,-0.0531,-0.0518,-0.0472,-0.0371,-0.0305,-0.02,-0.0088,-0.0071,-0.006,-0.0011,-0.0045,-0.0055,-0.0055,-0.0055,-0.0055,-0.0055,-0.0055,-0.0607,-0.0595,-0.0638,-0.0612,-0.0612,-0.0552,-0.04,-0.0319,-0.0189,-0.0127,-0.0085,-0.0021,-0.0018,-0.0048,-0.0057,-0.0057,-0.0057,-0.0056,-0.0056,-0.0666,-0.0681,-0.0753,-0.0777,-0.0757,-0.0689,-0.0559,-0.0363,-0.0284,-0.0202,-0.0134,-0.013,-0.0112,-0.0106,-0.0139,-0.0176,-0.0177,-0.0178,0,-0.0717,-0.0724,-0.0841,-0.0892,-0.0872,-0.0759,-0.0624,-0.0486,-0.032,-0.0326,-0.0297,-0.0229,-0.0222,-0.0211,-0.0206,-0.025,0,0,0,-0.0749,-0.0794,-0.0882,-0.094,-0.0917,-0.0708,-0.0573,-0.051,-0.0353,-0.026,-0.0194,-0.019,-0.0151,-0.0062,-0.0024,-0.002,-0.0066,0,0]}]]